Regional Weather Roundup
Issued by NWS Jackson, KY

Home | Current Version | Previous Version | Graphics & Text | Print | Product List | Glossary On
Versions: 1 2 3 4 5 6 7 8 9 10 11 12 13 14 15 16 17 18 19 20 21 22 23 24 25 26 27 28 29 30 31 32 33 34 35 36 37 38 39 40 41 42 43 44 45 46 47 48 49 50
000
ASUS43 KJKL 290819
RWRJKL

EAST KENTUCKY HOURLY WEATHER ROUNDUP
NATIONAL WEATHER SERVICE JACKSON KY
300 AM EST THU JAN 29 2015

NOTE: "FAIR" INDICATES FEW OR NO CLOUDS BELOW 12,000 FEET WITH
NO SIGNIFICANT WEATHER AND/OR OBSTRUCTIONS TO VISIBILITY.

* THESE REPORTS ARE NOT UNDER NWS QUALITY CONTROL AND MAY NOT
  REPORT WEATHER SUCH AS PRECIPITATION AND FOG.

KYZ079-080-083-085-087-088-110-112-115-119-120-290900
...EASTERN KENTUCKY...

CITY           SKY/WX    TMP DP  RH WIND       PRES   REMARKS
JACKSON        MOCLDY    33  18  53 S5        30.12F WCI  29
LONDON         PTCLDY    33  18  53 CALM      30.14S
SOMERSET*      MOCLDY    32  19  59 SE5       30.15F WCI  27
MONTICELLO*    MOCLDY    40  17  39 S7        30.15F
MIDDLESBORO*   PTCLDY    35  21  57 SW7       30.22S WCI  29
HARLAN APT*    PTSUNNY   36  18  48 E6        30.18S WCI  31
HAZARD APT*    SUNNY     28  23  80 E3        30.12
BLACK MTN*       N/A     32  16  51 S14         N/A  WCI  22
PIKEVILLE APT* CLEAR     34  18  51 SE10      30.14S WCI  26
BIG SANDY*     PTSUNNY   32  21  64 SE3       30.14F
MOREHEAD APT*  PTSUNNY   32  19  59 SE7       30.13F WCI  26
ASHLAND*       CLEAR     27  21  80 CALM      30.13F
$$

KYZ035-036-041-042-044-050-067-078-099-290900
...CENTRAL KENTUCKY...

CITY           SKY/WX    TMP DP  RH WIND       PRES   REMARKS
MT STERLING*   MOCLDY    32  21  64 S9        30.12F WCI  24
FLEMING/MASON* PTCLDY    32  22  66 SE10      30.11F WCI  24
DANVILLE*      MOCLDY    34  19  55 S7        30.10F WCI  28
RICHMOND*      MOCLDY    36  18  48 S13       30.11F WCI  27
LEXINGTON      MOCLDY    34  20  56 SE13      30.08F WCI  25
FRANKFORT      CLOUDY    34  19  54 SE8       30.05F WCI  27
$$

KYZ091>093-OHZ055-061-077-WVZ005-015-034-035-042-290900
...SOUTHERN OHIO/WEST VIRGINIA...

CITY           SKY/WX    TMP DP  RH WIND       PRES   REMARKS
COVINGTON      CLOUDY    33  20  58 S14       30.04F WCI  23
COLUMBUS       CLOUDY    26  16  65 SE9       30.11F WCI  17
DAYTON         CLOUDY    32  21  64 S15       30.01F WCI  22
WILMINGTON     MOCLDY    30  19  63 SE10      30.05F WCI  21
HUNTINGTON     MOCLDY    26  18  71 SE5       30.15F WCI  20
CHARLESTON     MOCLDY    22  18  85 CALM      30.17F
PINEVILLE*     MOCLDY    24  24  99 MISG      30.23S
BECKLEY        PTCLDY    27  12  53 SE9       30.15F WCI  18
BLUEFIELD      PTCLDY    32  13  45 S6        30.17S WCI  26
$$

VAZ002-007-008-TNZ017-027-036-066-071-290900
...SOUTHWEST VIRGINIA/EAST TENNESSEE...

CITY           SKY/WX    TMP DP  RH WIND       PRES   REMARKS
WISE*          MOCLDY    34  12  40 S7        30.16S WCI  28
JONESVILLE*    PTSUNNY   23  23 100 CALM      30.24S
ABINGDON*      PTCLDY    31  20  64 E5        30.19S WCI  26
BRISTOL        PTCLDY    25  20  81 CALM      30.22S
KNOXVILLE      CLOUDY    28  22  78 N5        30.24R WCI  23
OAK RIDGE      MOCLDY    29  23  78 CALM      30.25S
CROSSVILLE     MOCLDY    38  13  35 VRB6G18   30.17S WCI  33
NASHVILLE      CLOUDY    46  27  47 S15       30.11F
$$

...KEY TO REMARKS...
VSB - VISIBILITY IN MILES
WCI - WIND CHILL INDEX
HX  - HEAT INDEX

$$


USA.gov is the U.S. government's official web portal to all federal, state and local government web resources and services.